[[{"header":{"parameterUnit":"m.s-1","parameterCategory":2,"la1":30.2991,"la2":30.254,"lo1":-89.0895,"lo2":-89.0444,"dy":0.0017,"dx":0.0017,"nx":28,"ny":28,"refTime":"2024-05-28T03:00:00:Z","depth":"0","parameterNumber":2,"parameterNumberName":"U-component_of_CURRENTS"},"data":[0,0,0,0,0,0,0,0,0,0,0,0,0,0,0,0,0,0,0,0,0,0,0,0,0,0,0,0,0,0,0,0,0,0,0,0,0,0,0,0,0,0,0,0,0,0,0,0,0,0,0,0,0,0,0,0,0,0,-0.3735,-0.3735,0,-0.3756,-0.3756,-0.3756,-0.3765,-0.3765,-0.3765,-0.3766,-0.3799,-0.38,-0.3801,0,0,0,0,0,0,0,0,0,0,0,0,0,-0.3581,-0.3584,-0.3735,-0.3735,-0.3736,-0.3756,-0.3756,-0.3756,-0.3765,-0.3765,-0.3765,-0.3766,-0.3799,-0.38,-0.3801,0,0,0,0,0,0,0,0,0,0,0,0,0,-0.3627,-0.3585,-0.3735,-0.3745,-0.3746,-0.3756,-0.3756,-0.3756,-0.3765,-0.3765,-0.3765,-0.3766,-0.3799,-0.38,-0.3801,-0.38,0,0,-0.3804,-0.3804,0,0,0,0,0,0,0,0,-0.3624,-0.3632,-0.3743,-0.3744,-0.3746,-0.3761,-0.3714,-0.3772,-0.3765,-0.3755,-0.3766,-0.3766,-0.3789,-0.3791,-0.379,-0.3801,-0.3803,-0.3804,-0.3804,-0.3805,-0.3805,0,0,0,0,0,0,0,-0.3621,-0.3631,-0.374,-0.3743,-0.3745,-0.3707,-0.3715,-0.3724,-0.3767,-0.3755,-0.3757,-0.3764,-0.379,-0.3789,-0.3791,-0.3803,-0.3804,-0.3805,-0.3805,-0.3806,-0.386,-0.386,0,0,0,0,0,0,-0.3631,-0.3629,-0.3739,-0.3741,-0.3688,-0.371,-0.3719,-0.3753,-0.3767,-0.377,-0.3764,-0.3764,-0.3787,-0.3789,-0.3792,-0.3799,-0.3805,-0.3806,-0.3806,-0.3859,-0.386,-0.3861,0,0,0,0,0,0,-0.3628,-0.3642,-0.3739,-0.3685,-0.3695,-0.3714,-0.3751,-0.3753,-0.3762,-0.3774,-0.3777,-0.3771,-0.3787,-0.3791,-0.3795,-0.38,-0.3806,-0.3807,-0.3858,-0.3859,-0.386,-0.3808,0,0,0,0,0,0,-0.3624,-0.3642,-0.3673,-0.3687,-0.3699,-0.376,-0.3751,-0.3754,-0.3766,-0.3767,-0.3781,-0.3784,-0.3788,-0.3793,-0.3796,-0.3802,-0.3808,-0.3857,-0.3858,-0.386,-0.3809,-0.3808,-0.3806,0,0,0,0,0,-0.3619,-0.3668,-0.3675,-0.3688,-0.3742,-0.3761,-0.3764,-0.3773,-0.3766,-0.3779,-0.3771,-0.3784,-0.3806,-0.3793,-0.3797,-0.3803,-0.3856,-0.3858,-0.386,-0.3809,-0.3808,-0.3806,0,0,0,0,0,0,-0.3646,-0.3675,-0.3682,-0.3746,-0.3757,-0.3764,-0.3772,-0.3777,-0.3779,-0.3772,-0.3779,-0.3781,-0.3806,-0.3809,-0.3796,-0.3829,-0.384,-0.3843,-0.3801,-0.38,-0.3799,-0.3793,-0.3809,0,0,0,0,0,-0.366,-0.3684,-0.3712,-0.3758,-0.376,-0.3763,-0.3771,-0.3776,-0.3779,-0.378,-0.3787,-0.3795,-0.3815,-0.3808,-0.3838,-0.3829,-0.379,-0.3844,-0.3843,-0.3841,-0.3842,-0.3802,-0.3795,-0.3867,-0.3867,-0.3867,0,0,-0.368,-0.3699,-0.3715,-0.376,-0.3758,-0.3761,-0.3768,-0.3779,-0.3785,-0.3783,-0.3786,-0.3804,-0.3821,-0.3828,-0.3837,-0.3823,-0.3786,-0.3844,-0.3842,-0.3843,-0.3803,-0.3795,-0.3788,-0.3868,-0.3868,-0.3868,0,0,-0.3686,-0.3745,-0.3738,-0.3751,-0.3756,-0.3768,-0.3773,-0.3781,-0.3789,-0.3789,-0.3802,-0.3795,-0.3825,-0.3816,-0.3821,-0.3826,-0.3804,-0.3866,-0.3821,-0.3781,-0.3774,-0.3767,-0.3634,-0.3616,-0.3836,-0.3836,-0.3836,0,-0.3705,-0.3705,-0.3743,-0.3734,-0.3735,-0.3769,-0.3753,-0.3779,-0.3789,-0.3769,-0.379,-0.3788,-0.3809,-0.3785,-0.3806,-0.3817,-0.3776,-0.3816,-0.3774,-0.3768,-0.3762,-0.3627,-0.3608,-0.3834,-0.3834,-0.3835,-0.3835,0,-0.3676,-0.3686,-0.3684,-0.3681,-0.3708,-0.37,-0.374,-0.3757,-0.3766,-0.3755,-0.3746,-0.3757,-0.374,-0.3764,-0.3793,-0.377,-0.3744,-0.3793,-0.3766,-0.375,-0.361,-0.3591,-0.3831,-0.3832,-0.3832,-0.3833,0,0,-0.3652,-0.3657,-0.3649,-0.3621,-0.3668,-0.3671,-0.3709,-0.3704,-0.3682,-0.37,-0.3654,-0.3689,-0.3676,-0.3685,-0.371,-0.3687,-0.3596,-0.3733,-0.3732,-0.3576,-0.3446,-0.3305,-0.327,-0.3655,-0.3653,-0.3652,-0.3335,0,-0.3587,-0.3532,-0.3583,-0.3548,-0.3506,-0.3586,-0.361,-0.3628,-0.364,-0.362,-0.3616,-0.3594,-0.3654,-0.3637,-0.3629,-0.365,-0.3559,-0.3673,-0.3507,-0.35,-0.3359,-0.3249,-0.3144,-0.2847,-0.3316,-0.3313,-0.3311,0,-0.3488,-0.3463,-0.3398,-0.3416,-0.3414,-0.343,-0.3441,-0.348,-0.3494,-0.3493,-0.347,-0.3487,-0.3463,-0.3529,-0.3452,-0.3535,-0.3479,-0.3464,-0.3452,-0.3334,-0.3326,-0.2958,-0.2794,-0.2806,-0.3281,-0.3283,-0.3286,0,-0.332,-0.3328,-0.3258,-0.3262,-0.3303,-0.3306,-0.3358,-0.3394,-0.3395,-0.3402,-0.336,-0.3357,-0.3317,-0.3315,-0.3297,-0.338,-0.3191,-0.3279,-0.305,-0.3035,-0.2917,-0.2896,-0.2729,-0.3161,-0.3162,-0.3163,-0.3164,0,-0.3171,-0.3116,-0.3169,-0.3112,-0.3072,-0.3173,-0.3143,-0.3195,-0.3232,-0.3185,-0.3267,-0.3206,-0.328,-0.3201,-0.3218,-0.304,-0.3089,-0.2993,-0.2946,-0.2888,-0.2869,-0.2856,-0.2927,-0.3151,-0.3153,-0.3156,-0.3158,0,-0.2947,-0.298,-0.2903,-0.2943,-0.2964,-0.2933,-0.3025,-0.3005,-0.3062,-0.3013,-0.3004,-0.3039,-0.2945,-0.2936,-0.2878,-0.2856,-0.2697,-0.2664,-0.2542,-0.2488,-0.2328,-0.2401,-0.2171,-0.2107,-0.2356,-0.2351,-0.2346,0,-0.2805,-0.2728,-0.2749,-0.2731,-0.2742,-0.2751,-0.2761,-0.2878,-0.287,-0.2891,-0.2836,-0.2751,-0.2662,-0.2483,-0.2437,-0.2296,-0.2401,-0.2112,-0.2263,-0.2244,-0.2293,-0.2373,-0.2345,-0.2043,-0.2037,-0.2031,-0.2027,0,-0.2538,-0.2557,-0.2523,-0.2482,-0.248,-0.2495,-0.2529,-0.2506,-0.2625,-0.2584,-0.2524,-0.2465,-0.2292,-0.2145,-0.1971,-0.1914,-0.209,-0.1993,-0.203,-0.2056,-0.2077,-0.2017,-0.2279,-0.1979,-0.1984,-0.1987,-0.199,-0.1992,-0.2355,-0.2292,-0.2272,-0.2233,-0.2241,-0.2228,-0.2182,-0.2238,-0.2205,-0.2131,-0.2218,-0.2067,-0.1991,-0.1753,-0.1673,-0.1538,-0.1659,-0.1552,-0.1631,-0.1705,-0.1687,-0.1787,-0.1431,-0.1433,-0.1434,-0.1435,-0.1436,0,-0.2122,-0.209,-0.2037,-0.1993,-0.1933,-0.2013,-0.2009,-0.1935,-0.1848,-0.1789,-0.1728,-0.1643,-0.151,-0.1459,-0.135,-0.1258,-0.1282,-0.1243,-0.1384,-0.1367,-0.1471,-0.1508,-0.1085,-0.1085,-0.1085,-0.1085,-0.1085,-0.1085,-0.1993,-0.1878,-0.1864,-0.1701,-0.1676,-0.155,-0.1516,-0.1441,-0.1361,-0.1182,-0.1101,-0.1049,-0.1186,-0.1372,-0.1295,-0.1212,-0.1245,-0.1152,-0.1214,-0.138,-0.1419,-0.1457,-0.1507,-0.1091,-0.1091,-0.1065,-0.1065,-0.1066]},{"header":{"parameterUnit":"m.s-1","parameterCategory":2,"la1":30.2991,"la2":30.254,"lo1":-89.0895,"lo2":-89.0444,"dy":0.0017,"dx":0.0017,"nx":28,"ny":28,"refTime":"2024-05-28T03:00:00:Z","depth":"0","parameterNumber":3,"parameterNumberName":"V-component_of_CURRENTS"},"data":[0,0,0,0,0,0,0,0,0,0,0,0,0,0,0,0,0,0,0,0,0,0,0,0,0,0,0,0,0,0,0,0,0,0,0,0,0,0,0,0,0,0,0,0,0,0,0,0,0,0,0,0,0,0,0,0,0,0,-0.0485,-0.0483,0,-0.0257,-0.0254,-0.0251,-0.0097,-0.0097,-0.0096,-0.0095,0.0324,0.0334,0.0345,0,0,0,0,0,0,0,0,0,0,0,0,0,-0.0648,-0.0647,-0.0485,-0.0483,-0.048,-0.0257,-0.0254,-0.025,-0.0098,-0.0097,-0.0096,-0.0095,0.032,0.0333,0.0345,0,0,0,0,0,0,0,0,0,0,0,0,0,-0.0511,-0.0646,-0.0486,-0.038,-0.0369,-0.0258,-0.0254,-0.0249,-0.0098,-0.0097,-0.0096,-0.0095,0.0316,0.0332,0.0347,0.0424,0,0,0.0395,0.0402,0,0,0,0,0,0,0,0,-0.0519,-0.0505,-0.0398,-0.0388,-0.0375,-0.0208,-0.0158,-0.0016,-0.0098,-0.0196,-0.0095,-0.0094,0.016,0.0189,0.0233,0.0444,0.0462,0.0397,0.0406,0.0413,0.0418,0,0,0,0,0,0,0,-0.0529,-0.0513,-0.0391,-0.0396,-0.0381,-0.0296,-0.0277,-0.013,-0.002,-0.0188,-0.0177,-0.0159,0.0169,0.0217,0.0244,0.0468,0.0396,0.041,0.042,0.0426,0.0699,0.0696,0,0,0,0,0,0,-0.0574,-0.0523,-0.0398,-0.0384,-0.045,-0.0295,-0.0273,-0.0259,-0.0025,0.0009,-0.016,-0.0152,0.0189,0.0226,0.026,0.03,0.0413,0.0428,0.0437,0.0701,0.0698,0.0696,0,0,0,0,0,0,-0.0579,-0.0565,-0.0407,-0.0451,-0.0426,-0.0295,-0.028,-0.0255,-0.0207,-0.0007,0.0032,-0.0138,0.0192,0.0238,0.0356,0.032,0.0435,0.0449,0.0703,0.07,0.0697,0.0423,0,0,0,0,0,0,-0.0584,-0.0568,-0.0573,-0.0455,-0.0425,-0.0352,-0.0281,-0.0252,-0.0199,-0.0187,0.0025,0.0065,0.0196,0.033,0.0371,0.0344,0.0462,0.0706,0.0702,0.0698,0.0435,0.0411,0.039,0,0,0,0,0,-0.0591,-0.0597,-0.0575,-0.0559,-0.0436,-0.0353,-0.033,-0.0229,-0.02,-0.0182,-0.0066,0.0058,0.0332,0.0342,0.039,0.0367,0.0708,0.0703,0.0698,0.0445,0.0416,0.0391,0,0,0,0,0,0,-0.0662,-0.0579,-0.0552,-0.0532,-0.0459,-0.0329,-0.0303,-0.0246,-0.014,-0.0128,0.0049,0.0096,0.0179,0.031,0.0315,0.0428,0.0535,0.0539,0.0326,0.03,0.0278,0.022,0.0475,0,0,0,0,0,-0.0689,-0.0674,-0.0581,-0.0566,-0.0538,-0.043,-0.0385,-0.0323,-0.0218,-0.017,-0.0035,0.0098,0.0196,0.0274,0.0396,0.0479,0.0591,0.0488,0.0465,0.0446,0.0428,0.0515,0.0498,0.0679,0.0679,0.0679,0,0,-0.0713,-0.0666,-0.0658,-0.0582,-0.0517,-0.0493,-0.0399,-0.0343,-0.0332,-0.0138,-0.0077,0.0034,0.0197,0.0265,0.0315,0.0375,0.0459,0.0439,0.0421,0.0414,0.0508,0.049,0.0474,0.0676,0.0676,0.0677,0,0,-0.0756,-0.0718,-0.072,-0.0676,-0.0599,-0.0538,-0.0536,-0.0424,-0.0383,-0.0309,-0.0203,-0.0138,0.0069,0.0133,0.0201,0.0133,0.0328,0.0189,0.0048,0.013,0.0116,0.0105,0.0243,0.0246,0.0187,0.0186,0.0186,0,-0.079,-0.0782,-0.0707,-0.0701,-0.068,-0.0577,-0.0582,-0.053,-0.04,-0.0379,-0.0318,-0.0128,-0.001,0.0036,-0.0012,0.0079,0.019,0.0132,0.0098,0.0089,0.0082,0.0228,0.0234,0.0172,0.0174,0.0175,0.0177,0,-0.0832,-0.0829,-0.0828,-0.08,-0.077,-0.0752,-0.0688,-0.0662,-0.0605,-0.054,-0.0478,-0.0344,-0.0231,-0.0205,-0.0126,-0.0131,-0.0013,0.0048,0.0157,0.0047,0.0209,0.022,0.0153,0.0158,0.0162,0.0165,0,0,-0.0895,-0.0866,-0.0866,-0.0876,-0.0823,-0.08,-0.0815,-0.078,-0.0774,-0.0686,-0.066,-0.0584,-0.0511,-0.0437,-0.0338,-0.0292,-0.0268,-0.0164,-0.0153,-0.0043,-0.0029,0.0035,0.0057,-0.0203,-0.0203,-0.0203,0.0111,0,-0.0948,-0.0967,-0.0944,-0.0978,-0.0981,-0.0934,-0.0947,-0.0912,-0.0846,-0.079,-0.0712,-0.0624,-0.0596,-0.0531,-0.0509,-0.0295,-0.0251,-0.0355,0.0077,0.0091,0.0145,0.0066,0.0113,0.0394,0.0124,0.0126,0.0128,0,-0.0995,-0.1001,-0.1039,-0.1058,-0.1059,-0.1073,-0.1069,-0.1068,-0.0997,-0.094,-0.0886,-0.076,-0.0694,-0.064,-0.0413,-0.0466,-0.0304,-0.0156,-0.0138,0.0021,0.0174,0.046,0.0428,0.0582,0.0148,0.0147,0.0145,0,-0.1047,-0.1074,-0.1109,-0.1112,-0.1113,-0.1142,-0.1152,-0.1109,-0.1092,-0.1016,-0.0937,-0.0848,-0.0719,-0.0573,-0.0307,-0.0337,-0.0005,0.0018,0.0223,0.0236,0.0409,0.0433,0.0557,0.0139,0.0138,0.0137,0.0136,0,-0.1099,-0.113,-0.1137,-0.1151,-0.1205,-0.1197,-0.1232,-0.1221,-0.1163,-0.1105,-0.1014,-0.0897,-0.0696,-0.0469,-0.0294,0.002,0.0014,0.0186,0.0297,0.0318,0.033,0.0581,0.0646,0.0149,0.0147,0.0144,0.0142,0,-0.1133,-0.1137,-0.1182,-0.1209,-0.1222,-0.1262,-0.1281,-0.1285,-0.1223,-0.113,-0.1089,-0.0881,-0.0585,-0.0349,-0.0016,0.0098,0.0486,0.0471,0.0502,0.0604,0.0868,0.0915,0.1194,0.1303,0.0731,0.0734,0.0737,0,-0.1145,-0.1164,-0.1216,-0.1246,-0.1261,-0.1312,-0.1333,-0.1321,-0.1293,-0.1093,-0.1023,-0.0722,-0.0481,0.0017,0.028,0.062,0.07,0.0836,0.0721,0.0869,0.1007,0.1022,0.1092,0.0887,0.0891,0.0894,0.0896,0,-0.1168,-0.1184,-0.1222,-0.1273,-0.1314,-0.136,-0.1374,-0.1346,-0.1275,-0.1129,-0.0864,-0.0644,-0.0179,0.0228,0.0621,0.0794,0.0944,0.0904,0.1054,0.1109,0.1143,0.1308,0.0735,0.0922,0.092,0.0918,0.0916,0.0915,-0.1178,-0.1215,-0.1254,-0.1304,-0.1352,-0.137,-0.1362,-0.1279,-0.1166,-0.0828,-0.0697,-0.0221,0.0164,0.0727,0.093,0.1292,0.1213,0.1358,0.141,0.1415,0.1465,0.0945,0.1235,0.1234,0.1233,0.1233,0.1232,0,-0.1183,-0.1221,-0.1275,-0.1333,-0.137,-0.1388,-0.1352,-0.1239,-0.1008,-0.0602,-0.0264,0.0355,0.0802,0.1172,0.1592,0.1779,0.1802,0.1854,0.1881,0.1933,0.1499,0.1444,0.1793,0.1793,0.1793,0.1793,0.1792,0.1792,-0.1185,-0.1235,-0.1265,-0.132,-0.135,-0.1329,-0.1281,-0.1012,-0.0696,-0.0026,0.0498,0.0843,0.1206,0.1773,0.2175,0.2211,0.2385,0.2359,0.2454,0.2135,0.2091,0.2049,0.2009,0.2472,0.2473,0.2865,0.2869,0.2873]}],[{"header":{"parameterUnit":"m.s-1","parameterCategory":2,"la1":30.2991,"la2":30.254,"lo1":-89.0895,"lo2":-89.0444,"dy":0.0017,"dx":0.0017,"nx":28,"ny":28,"refTime":"2024-05-28T03:00:00:Z","depth":"2","parameterNumber":2,"parameterNumberName":"U-component_of_CURRENTS"},"data":[0,0,0,0,0,0,0,0,0,0,0,0,0,0,0,0,0,0,0,0,0,0,0,0,0,0,0,0,0,0,0,0,0,0,0,0,0,0,0,0,0,0,0,0,0,0,0,0,0,0,0,0,0,0,0,0,0,0,-0.2613,-0.2613,0,-0.263,-0.263,-0.263,-0.2619,-0.2619,-0.2619,-0.2619,-0.2557,-0.2555,-0.2554,0,0,0,0,0,0,0,0,0,0,0,0,0,-0.2548,-0.2549,-0.2613,-0.2613,-0.2614,-0.263,-0.263,-0.263,-0.2619,-0.2619,-0.2619,-0.2618,-0.2557,-0.2556,-0.2554,0,0,0,0,0,0,0,0,0,0,0,0,0,-0.2569,-0.255,-0.2612,-0.2612,-0.2613,-0.263,-0.263,-0.263,-0.2619,-0.2619,-0.2619,-0.2618,-0.2558,-0.2556,-0.2554,-0.2548,0,0,-0.2547,-0.2546,0,0,0,0,0,0,0,0,-0.2568,-0.2571,-0.2612,-0.2612,-0.2613,-0.2625,-0.2585,-0.2599,-0.2619,-0.2614,-0.2619,-0.2618,-0.2574,-0.2571,-0.2572,-0.2545,-0.2542,-0.2547,-0.2546,-0.2545,-0.2544,0,0,0,0,0,0,0,-0.2567,-0.257,-0.2616,-0.2613,-0.2613,-0.2604,-0.2606,-0.2587,-0.2592,-0.2614,-0.2614,-0.2621,-0.2574,-0.2574,-0.257,-0.2541,-0.2547,-0.2545,-0.2544,-0.2543,-0.2501,-0.2501,0,0,0,0,0,0,-0.2572,-0.2569,-0.2616,-0.2617,-0.2592,-0.2606,-0.2608,-0.2619,-0.2594,-0.2591,-0.2621,-0.262,-0.2578,-0.2573,-0.2568,-0.2566,-0.2545,-0.2543,-0.2542,-0.2501,-0.2501,-0.2502,0,0,0,0,0,0,-0.2571,-0.2576,-0.2615,-0.2595,-0.26,-0.2608,-0.2619,-0.2619,-0.2627,-0.2601,-0.2596,-0.2629,-0.2577,-0.2571,-0.2553,-0.2563,-0.2542,-0.254,-0.2501,-0.2501,-0.2501,-0.2559,0,0,0,0,0,0,-0.2569,-0.2576,-0.2587,-0.2596,-0.2602,-0.2626,-0.262,-0.262,-0.2632,-0.2631,-0.2606,-0.26,-0.2577,-0.2556,-0.2551,-0.256,-0.2538,-0.2501,-0.2501,-0.2501,-0.2556,-0.2561,-0.2564,0,0,0,0,0,-0.2566,-0.2584,-0.2587,-0.2593,-0.2616,-0.2626,-0.2628,-0.263,-0.2633,-0.2635,-0.2618,-0.2601,-0.2554,-0.2555,-0.2548,-0.2557,-0.2501,-0.2501,-0.2501,-0.2555,-0.256,-0.2564,0,0,0,0,0,0,-0.2562,-0.2585,-0.2589,-0.2612,-0.2619,-0.2626,-0.2635,-0.2637,-0.2629,-0.2632,-0.2602,-0.2595,-0.2584,-0.2561,-0.2562,-0.2545,-0.2525,-0.2524,-0.2567,-0.2572,-0.2576,-0.2579,-0.2537,0,0,0,0,0,-0.2568,-0.2584,-0.26,-0.2616,-0.2625,-0.2632,-0.2639,-0.2644,-0.264,-0.2637,-0.2616,-0.2596,-0.2581,-0.2569,-0.2549,-0.2539,-0.2505,-0.2539,-0.2543,-0.2547,-0.2544,-0.2529,-0.2531,-0.2503,-0.2503,-0.2503,0,0,-0.2572,-0.2585,-0.2595,-0.2616,-0.2625,-0.2636,-0.2635,-0.2654,-0.2657,-0.263,-0.2624,-0.2611,-0.2582,-0.2572,-0.2565,-0.2553,-0.253,-0.2548,-0.2551,-0.2546,-0.2529,-0.2532,-0.2535,-0.2503,-0.2503,-0.2503,0,0,-0.2577,-0.2601,-0.2612,-0.2623,-0.2643,-0.2649,-0.2657,-0.2668,-0.2667,-0.2664,-0.2648,-0.2642,-0.261,-0.2597,-0.2585,-0.2598,-0.2555,-0.2591,-0.2611,-0.2597,-0.2599,-0.2601,-0.2532,-0.2527,-0.259,-0.2591,-0.2591,0,-0.2583,-0.2595,-0.2615,-0.2627,-0.2636,-0.2656,-0.2664,-0.2673,-0.2671,-0.2668,-0.2666,-0.2642,-0.2623,-0.2615,-0.2621,-0.2608,-0.2573,-0.2599,-0.2603,-0.2605,-0.2605,-0.2534,-0.2528,-0.2593,-0.2593,-0.2593,-0.2593,0,-0.2582,-0.2603,-0.2614,-0.2633,-0.2645,-0.266,-0.2677,-0.2685,-0.2691,-0.2692,-0.2691,-0.2675,-0.2656,-0.2658,-0.2643,-0.2643,-0.2605,-0.2615,-0.2595,-0.2612,-0.2535,-0.2528,-0.2597,-0.2596,-0.2596,-0.2595,0,0,-0.2553,-0.2605,-0.2604,-0.2615,-0.2651,-0.2655,-0.2676,-0.2685,-0.2695,-0.2701,-0.27,-0.2696,-0.2696,-0.2683,-0.2673,-0.2667,-0.2639,-0.2646,-0.2644,-0.2582,-0.2564,-0.2467,-0.2449,-0.2657,-0.2657,-0.2657,-0.2497,0,-0.2539,-0.2562,-0.2589,-0.2605,-0.2619,-0.265,-0.2662,-0.268,-0.2694,-0.2699,-0.2705,-0.2704,-0.2703,-0.2702,-0.2699,-0.2659,-0.2628,-0.2678,-0.2552,-0.2547,-0.2464,-0.2441,-0.228,-0.2119,-0.2489,-0.2488,-0.2487,0,-0.2504,-0.2531,-0.2546,-0.2591,-0.2599,-0.261,-0.2631,-0.2647,-0.2676,-0.269,-0.2706,-0.2713,-0.2703,-0.271,-0.2643,-0.2675,-0.2618,-0.2587,-0.2581,-0.2467,-0.2437,-0.2167,-0.2091,-0.2475,-0.2476,-0.2477,-0.2477,0,-0.2437,-0.2487,-0.2495,-0.251,-0.257,-0.2575,-0.2598,-0.2634,-0.2643,-0.2683,-0.269,-0.2699,-0.2678,-0.265,-0.2581,-0.2613,-0.2489,-0.2522,-0.237,-0.236,-0.2184,-0.2159,-0.2465,-0.2465,-0.2465,-0.2466,-0.2466,0,-0.2391,-0.2396,-0.2466,-0.2472,-0.2473,-0.2533,-0.2536,-0.257,-0.2614,-0.2605,-0.2673,-0.2652,-0.2667,-0.2604,-0.2561,-0.2417,-0.2461,-0.2351,-0.2317,-0.2194,-0.2174,-0.2465,-0.2467,-0.246,-0.2461,-0.2462,-0.2463,0,-0.2295,-0.2352,-0.2361,-0.2425,-0.244,-0.2431,-0.2483,-0.2486,-0.2553,-0.2542,-0.2553,-0.2587,-0.2502,-0.2477,-0.2396,-0.2351,-0.2258,-0.2193,-0.202,-0.1969,-0.2139,-0.2146,-0.2011,-0.2007,-0.2003,-0.1999,-0.1997,0,-0.2238,-0.2238,-0.2293,-0.2294,-0.2316,-0.2333,-0.2337,-0.2425,-0.2435,-0.2474,-0.2448,-0.2407,-0.2322,-0.2172,-0.209,-0.1963,-0.2084,-0.1769,-0.182,-0.2114,-0.2095,-0.2109,-0.212,-0.1586,-0.158,-0.1575,-0.1571,0,-0.2119,-0.2142,-0.2153,-0.2157,-0.2162,-0.2176,-0.2201,-0.2209,-0.2287,-0.228,-0.2233,-0.2177,-0.2038,-0.1846,-0.1722,-0.1645,-0.1792,-0.1666,-0.1999,-0.1745,-0.1706,-0.1691,-0.1717,-0.1528,-0.1533,-0.1536,-0.1538,-0.154,-0.2002,-0.1977,-0.1993,-0.1981,-0.1998,-0.1996,-0.1948,-0.1992,-0.1972,-0.1922,-0.1974,-0.1821,-0.1781,-0.1489,-0.1384,-0.1317,-0.1449,-0.142,-0.1438,-0.146,-0.1459,-0.1417,-0.1181,-0.1183,-0.1185,-0.1187,-0.1188,0,-0.1832,-0.1828,-0.1815,-0.1799,-0.1755,-0.1823,-0.1822,-0.1746,-0.1656,-0.1647,-0.1571,-0.1362,-0.1218,-0.1184,-0.1003,-0.0972,-0.0993,-0.0948,-0.0993,-0.1033,-0.107,-0.1055,-0.0666,-0.0665,-0.0664,-0.0663,0,0,-0.174,-0.1671,-0.1671,-0.1551,-0.1541,-0.1423,-0.1387,-0.131,-0.1269,-0.1147,-0.107,-0.1124,-0.113,-0.0907,-0.0849,-0.073,-0.0876,-0.0682,-0.1094,-0.1186,-0.1221,-0.1326,-0.1344,0,0,0,0,0]},{"header":{"parameterUnit":"m.s-1","parameterCategory":2,"la1":30.2991,"la2":30.254,"lo1":-89.0895,"lo2":-89.0444,"dy":0.0017,"dx":0.0017,"nx":28,"ny":28,"refTime":"2024-05-28T03:00:00:Z","depth":"2","parameterNumber":3,"parameterNumberName":"V-component_of_CURRENTS"},"data":[0,0,0,0,0,0,0,0,0,0,0,0,0,0,0,0,0,0,0,0,0,0,0,0,0,0,0,0,0,0,0,0,0,0,0,0,0,0,0,0,0,0,0,0,0,0,0,0,0,0,0,0,0,0,0,0,0,0,-0.0536,-0.0535,0,-0.0422,-0.0421,-0.0419,-0.0358,-0.0358,-0.0358,-0.0358,-0.0157,-0.0152,-0.0147,0,0,0,0,0,0,0,0,0,0,0,0,0,-0.0574,-0.0574,-0.0536,-0.0535,-0.0534,-0.0422,-0.0421,-0.0419,-0.0358,-0.0358,-0.0358,-0.0358,-0.0159,-0.0153,-0.0146,0,0,0,0,0,0,0,0,0,0,0,0,0,-0.0518,-0.0575,-0.0537,-0.049,-0.0485,-0.0423,-0.0421,-0.0419,-0.0358,-0.0358,-0.0358,-0.0358,-0.0161,-0.0153,-0.0145,-0.0098,0,0,-0.0121,-0.0118,0,0,0,0,0,0,0,0,-0.0522,-0.0517,-0.0499,-0.0493,-0.0487,-0.0405,-0.036,-0.0307,-0.0358,-0.0405,-0.0358,-0.0358,-0.0232,-0.0219,-0.0197,-0.0089,-0.008,-0.012,-0.0116,-0.0112,-0.011,0,0,0,0,0,0,0,-0.0526,-0.0521,-0.049,-0.0497,-0.049,-0.0431,-0.0425,-0.035,-0.0319,-0.0401,-0.0397,-0.0385,-0.0229,-0.0205,-0.0192,-0.0077,-0.0121,-0.0114,-0.0109,-0.0106,0.009,0.0091,0,0,0,0,0,0,-0.0548,-0.0525,-0.0494,-0.0487,-0.0505,-0.0432,-0.0424,-0.0431,-0.0321,-0.0305,-0.0385,-0.0383,-0.0219,-0.0201,-0.0185,-0.0117,-0.0112,-0.0105,-0.01,0.009,0.009,0.0091,0,0,0,0,0,0,-0.055,-0.0547,-0.0499,-0.0503,-0.0492,-0.0432,-0.044,-0.0429,-0.0406,-0.031,-0.0293,-0.0375,-0.0218,-0.0196,-0.0119,-0.0109,-0.0101,-0.0094,0.0089,0.009,0.0091,0.0015,0,0,0,0,0,0,-0.0552,-0.0549,-0.056,-0.0505,-0.0493,-0.0466,-0.044,-0.0427,-0.04,-0.0395,-0.0295,-0.0276,-0.0216,-0.0131,-0.0111,-0.0098,-0.0088,0.0089,0.009,0.009,0.0017,0.0013,0.0009,0,0,0,0,0,-0.0554,-0.057,-0.0561,-0.0557,-0.0511,-0.0466,-0.0455,-0.0409,-0.04,-0.0389,-0.0323,-0.028,-0.0112,-0.0125,-0.0101,-0.0085,0.0088,0.0089,0.009,0.0018,0.0014,0.001,0,0,0,0,0,0,-0.0589,-0.0564,-0.0553,-0.0561,-0.052,-0.0456,-0.0444,-0.0415,-0.0357,-0.0352,-0.0267,-0.0243,-0.0175,-0.0119,-0.0135,-0.0027,-0.0006,-0.0001,-0.0069,-0.0073,-0.0076,-0.0092,-0.0081,0,0,0,0,0,-0.0605,-0.0613,-0.0569,-0.0574,-0.0559,-0.0504,-0.0481,-0.0451,-0.0393,-0.0369,-0.0299,-0.0223,-0.0151,-0.0106,-0.0036,0.0029,0.0075,0.0053,0.0049,0.0046,0.0049,0.0118,0.0121,0.0094,0.0094,0.0094,0,0,-0.062,-0.0606,-0.0611,-0.0581,-0.0548,-0.0523,-0.049,-0.0461,-0.0432,-0.0353,-0.0294,-0.0232,-0.0138,-0.0071,-0.0034,-0.0022,0.0076,0.0047,0.0043,0.0049,0.0119,0.0122,0.0124,0.0095,0.0095,0.0095,0,0,-0.0642,-0.0643,-0.065,-0.0622,-0.058,-0.0543,-0.0539,-0.0479,-0.0447,-0.0385,-0.0324,-0.0259,-0.0148,-0.0081,-0.0032,-0.001,0.005,0.0009,-0.0012,0.0054,0.0056,0.0059,0.0107,0.0115,0.0012,0.0012,0.0011,0,-0.0661,-0.0667,-0.0641,-0.063,-0.061,-0.0557,-0.0546,-0.0501,-0.0421,-0.0388,-0.0376,-0.0224,-0.015,-0.006,-0.0056,-0.0017,0.0021,-0.0007,0.0047,0.0051,0.0056,0.0105,0.0114,0.0008,0.0008,0.0009,0.0009,0,-0.0676,-0.068,-0.068,-0.0655,-0.0626,-0.0611,-0.0551,-0.0516,-0.0476,-0.0424,-0.0341,-0.025,-0.0161,-0.0129,-0.0081,-0.0013,0.0004,0.0027,0.0052,0.0053,0.0105,0.0116,0.0003,0.0004,0.0005,0.0006,0,0,-0.0725,-0.07,-0.07,-0.0695,-0.0643,-0.0623,-0.0577,-0.0516,-0.0489,-0.0411,-0.0365,-0.0248,-0.0211,-0.0154,-0.009,-0.0029,0.0028,0.0004,0.001,0.004,0.016,0.0183,0.0198,0.0056,0.0058,0.006,0.0179,0,-0.0744,-0.0748,-0.0718,-0.0708,-0.0706,-0.0647,-0.0609,-0.0545,-0.0488,-0.043,-0.0335,-0.027,-0.0216,-0.0187,-0.0115,-0.0005,0.0056,-0.0007,0.0166,0.0171,0.0181,0.0212,0.0193,0.0299,0.019,0.0192,0.0193,0,-0.0766,-0.0769,-0.0774,-0.0747,-0.0739,-0.0721,-0.0663,-0.062,-0.0523,-0.0479,-0.04,-0.0329,-0.0222,-0.0192,-0.0004,-0.005,0.0048,0.0129,0.0136,0.0194,0.0216,0.0285,0.0324,0.0213,0.0211,0.021,0.0209,0,-0.0818,-0.0804,-0.0816,-0.0807,-0.0766,-0.0754,-0.0724,-0.0641,-0.0606,-0.0519,-0.0488,-0.0357,-0.0287,-0.0153,0.0018,0.0006,0.0218,0.0225,0.034,0.0342,0.0381,0.0384,0.0356,0.0356,0.0355,0.0355,0.0355,0,-0.0854,-0.0861,-0.085,-0.086,-0.0868,-0.0816,-0.0803,-0.0751,-0.068,-0.063,-0.0529,-0.0456,-0.0273,-0.0128,0.001,0.0215,0.0219,0.0347,0.0383,0.0353,0.0352,0.0323,0.0318,0.0359,0.0358,0.0358,0.0357,0,-0.0901,-0.0895,-0.0916,-0.0902,-0.0898,-0.0907,-0.0869,-0.0852,-0.0779,-0.0715,-0.0692,-0.0518,-0.0319,-0.0135,0.0104,0.0214,0.0394,0.0465,0.0408,0.0435,0.047,0.046,0.0598,0.06,0.0601,0.0603,0.0604,0,-0.0922,-0.0942,-0.0962,-0.0982,-0.0982,-0.0984,-0.0979,-0.0915,-0.0888,-0.0734,-0.0702,-0.0504,-0.0331,0.0008,0.0235,0.0477,0.0471,0.0579,0.056,0.0479,0.05,0.0487,0.0474,0.0579,0.058,0.0581,0.0581,0,-0.0964,-0.0978,-0.0999,-0.1044,-0.1064,-0.1073,-0.1058,-0.1044,-0.0941,-0.0853,-0.0677,-0.0527,-0.0194,0.0093,0.038,0.0509,0.0532,0.0601,0.0562,0.0512,0.047,0.0487,0.0474,0.0588,0.0587,0.0587,0.0586,0.0586,-0.0989,-0.1025,-0.1057,-0.1094,-0.1124,-0.1134,-0.1119,-0.107,-0.0991,-0.0818,-0.0669,-0.0417,-0.015,0.0277,0.0486,0.0648,0.0641,0.0673,0.0668,0.0663,0.0631,0.0593,0.0728,0.0728,0.0728,0.0728,0.0728,0,-0.1008,-0.1047,-0.1093,-0.1141,-0.1174,-0.1173,-0.1143,-0.1086,-0.0967,-0.0799,-0.0599,-0.0274,0.0041,0.029,0.0573,0.0744,0.0717,0.0749,0.069,0.0683,0.0676,0.0642,0.0744,0.0744,0.0745,0.0745,0,0,-0.1018,-0.1067,-0.1097,-0.1161,-0.1191,-0.1185,-0.1153,-0.1044,-0.091,-0.07,-0.0519,-0.0272,0.0047,0.0256,0.0479,0.0619,0.0593,0.0617,0.0587,0.0483,0.0475,0.0618,0.0556,0,0,0,0,0]}],[{"header":{"parameterUnit":"m.s-1","parameterCategory":2,"la1":30.2991,"la2":30.254,"lo1":-89.0895,"lo2":-89.0444,"dy":0.0017,"dx":0.0017,"nx":28,"ny":28,"refTime":"2024-05-28T03:00:00:Z","depth":"4","parameterNumber":2,"parameterNumberName":"U-component_of_CURRENTS"},"data":[0,0,0,0,0,0,0,0,0,0,0,0,0,0,0,0,0,0,0,0,0,0,0,0,0,0,0,0,0,0,0,0,0,0,0,0,0,0,0,0,0,0,0,0,0,0,0,0,0,0,0,0,0,0,0,0,0,0,-0.1673,-0.1674,0,-0.1722,-0.1722,-0.1723,-0.1765,-0.1766,-0.1766,-0.1767,-0.1803,-0.1804,-0.1804,0,0,0,0,0,0,0,0,0,0,0,0,0,-0.1587,-0.1588,-0.1673,-0.1674,-0.1675,-0.1722,-0.1722,-0.1723,-0.1765,-0.1766,-0.1767,-0.1767,-0.1803,-0.1804,-0.1804,0,0,0,0,0,0,0,0,0,0,0,0,0,-0.1626,-0.1588,-0.1673,-0.1704,-0.1708,-0.1722,-0.1722,-0.1723,-0.1764,-0.1766,-0.1767,-0.1768,-0.1803,-0.1804,-0.1804,-0.1783,0,0,-0.1805,-0.1805,0,0,0,0,0,0,0,0,-0.1623,-0.1628,-0.1699,-0.1702,-0.1706,-0.1742,-0.1706,-0.1743,-0.1764,-0.1739,-0.1767,-0.1768,-0.1783,-0.1785,-0.1787,-0.1784,-0.1786,-0.1805,-0.1805,-0.1805,-0.1806,0,0,0,0,0,0,0,-0.1621,-0.1626,-0.1689,-0.17,-0.1704,-0.1706,-0.1712,-0.1712,-0.1751,-0.1742,-0.1746,-0.1756,-0.1785,-0.1786,-0.1788,-0.1786,-0.1805,-0.1805,-0.1806,-0.1806,-0.1877,-0.1879,0,0,0,0,0,0,-0.1622,-0.1624,-0.1688,-0.1691,-0.1671,-0.1707,-0.1714,-0.1726,-0.1751,-0.1758,-0.1755,-0.1758,-0.1785,-0.1788,-0.179,-0.1859,-0.1805,-0.1806,-0.1806,-0.1875,-0.1877,-0.1879,0,0,0,0,0,0,-0.162,-0.1627,-0.1686,-0.1661,-0.1669,-0.1708,-0.172,-0.1727,-0.1762,-0.1762,-0.1768,-0.1789,-0.1786,-0.1789,-0.1829,-0.1857,-0.1806,-0.1806,-0.1873,-0.1876,-0.1878,-0.1938,0,0,0,0,0,0,-0.1617,-0.1626,-0.1643,-0.1661,-0.1671,-0.1715,-0.172,-0.1727,-0.1767,-0.1772,-0.1792,-0.1795,-0.1787,-0.1828,-0.1829,-0.1857,-0.1807,-0.1871,-0.1875,-0.1878,-0.1934,-0.1942,-0.1949,0,0,0,0,0,-0.1614,-0.1629,-0.1643,-0.1652,-0.169,-0.1716,-0.1721,-0.1749,-0.1768,-0.1786,-0.1811,-0.1796,-0.1849,-0.183,-0.183,-0.1859,-0.187,-0.1874,-0.1877,-0.193,-0.194,-0.1949,0,0,0,0,0,0,-0.1602,-0.1636,-0.1652,-0.1678,-0.1707,-0.1725,-0.1749,-0.1767,-0.18,-0.1817,-0.1815,-0.182,-0.1864,-0.1856,-0.1835,-0.1891,-0.1857,-0.1862,-0.1898,-0.1907,-0.1915,-0.1909,-0.1807,0,0,0,0,0,-0.1607,-0.1629,-0.166,-0.1684,-0.1703,-0.1732,-0.1751,-0.1774,-0.1801,-0.1818,-0.1835,-0.1855,-0.1873,-0.1888,-0.1898,-0.1926,-0.1896,-0.1946,-0.1954,-0.1961,-0.1958,-0.1951,-0.1958,-0.1892,-0.1892,-0.1892,0,0,-0.1611,-0.1632,-0.1646,-0.1684,-0.171,-0.1743,-0.1747,-0.1789,-0.1823,-0.1815,-0.1872,-0.1883,-0.1887,-0.1924,-0.1942,-0.1925,-0.1962,-0.1965,-0.1971,-0.1965,-0.1956,-0.1962,-0.1967,-0.1894,-0.1894,-0.1893,0,0,-0.1623,-0.165,-0.1675,-0.1703,-0.1751,-0.1768,-0.1789,-0.183,-0.1859,-0.1907,-0.1915,-0.1947,-0.1974,-0.1983,-0.1989,-0.2045,-0.2003,-0.2055,-0.209,-0.2084,-0.2088,-0.2092,-0.2048,-0.2048,-0.2059,-0.206,-0.206,0,-0.1626,-0.1664,-0.1686,-0.172,-0.175,-0.1786,-0.1824,-0.1854,-0.1905,-0.1929,-0.1938,-0.1992,-0.1999,-0.2035,-0.2061,-0.2061,-0.2038,-0.2052,-0.2092,-0.2095,-0.2098,-0.2052,-0.2051,-0.2063,-0.2062,-0.2062,-0.2062,0,-0.1654,-0.1697,-0.1717,-0.177,-0.1801,-0.1842,-0.1886,-0.1929,-0.1968,-0.1993,-0.2049,-0.2062,-0.2089,-0.2103,-0.2101,-0.2133,-0.2103,-0.21,-0.2063,-0.2108,-0.2057,-0.2054,-0.2068,-0.2066,-0.2065,-0.2065,0,0,-0.1624,-0.1718,-0.1729,-0.1767,-0.1836,-0.1861,-0.1924,-0.1979,-0.2021,-0.2069,-0.211,-0.2153,-0.216,-0.2167,-0.217,-0.2173,-0.2173,-0.2153,-0.2151,-0.2099,-0.2134,-0.1986,-0.1968,-0.2181,-0.2181,-0.2182,-0.2083,0,-0.1643,-0.1716,-0.1757,-0.1829,-0.1871,-0.1923,-0.1973,-0.2028,-0.2074,-0.212,-0.2145,-0.2184,-0.2184,-0.2203,-0.2208,-0.2183,-0.2172,-0.2198,-0.2106,-0.2102,-0.1958,-0.1963,-0.2183,-0.2081,-0.208,-0.208,-0.2079,0,-0.1648,-0.1702,-0.1779,-0.1866,-0.1889,-0.1937,-0.2018,-0.2065,-0.2132,-0.2167,-0.2208,-0.2225,-0.2243,-0.2237,-0.2206,-0.2223,-0.2185,-0.2159,-0.2155,-0.1993,-0.195,-0.2032,-0.2074,-0.2074,-0.2075,-0.2075,-0.2076,0,-0.1605,-0.1708,-0.1772,-0.1805,-0.1909,-0.1955,-0.2007,-0.2083,-0.2119,-0.2194,-0.2217,-0.2249,-0.2248,-0.223,-0.2176,-0.2198,-0.2114,-0.2133,-0.1958,-0.1946,-0.2083,-0.208,-0.2105,-0.2105,-0.2105,-0.2106,-0.2106,0,-0.1587,-0.164,-0.1765,-0.1801,-0.1867,-0.1945,-0.2008,-0.2067,-0.2138,-0.2151,-0.2232,-0.2221,-0.225,-0.2207,-0.2171,-0.2029,-0.2102,-0.1947,-0.1911,-0.2109,-0.211,-0.2079,-0.2077,-0.2102,-0.2103,-0.2104,-0.2104,0,-0.1517,-0.1609,-0.1683,-0.1811,-0.185,-0.1892,-0.1992,-0.202,-0.2111,-0.2126,-0.2147,-0.2191,-0.212,-0.2109,-0.2049,-0.1983,-0.1894,-0.1829,-0.2005,-0.1984,-0.1733,-0.1736,-0.1626,-0.162,-0.1614,-0.161,-0.1607,0,-0.1481,-0.1521,-0.1665,-0.1701,-0.1762,-0.184,-0.1875,-0.1986,-0.2005,-0.2069,-0.2048,-0.2032,-0.203,-0.1807,-0.1833,-0.173,-0.1719,-0.1672,-0.174,-0.1707,-0.1684,-0.1695,-0.1705,-0.1599,-0.1597,-0.1596,-0.1595,0,-0.1401,-0.147,-0.1528,-0.1608,-0.1665,-0.1715,-0.1779,-0.1784,-0.1873,-0.1969,-0.1881,-0.1832,-0.1738,-0.1679,-0.1601,-0.1544,-0.171,-0.1619,-0.1631,-0.1694,-0.1673,-0.1658,-0.1673,-0.1577,-0.1579,-0.1581,-0.1582,0,-0.1325,-0.1342,-0.1426,-0.1475,-0.1546,-0.156,-0.162,-0.162,-0.165,-0.1734,-0.1681,-0.1663,-0.1693,-0.1576,-0.1506,-0.1432,-0.1427,-0.1408,-0.1431,-0.1451,-0.1442,-0.1394,-0.1162,0,0,0,0,0,-0.1233,-0.1236,-0.1279,-0.1327,-0.1393,-0.1429,-0.153,-0.1592,-0.1681,-0.1564,-0.1623,-0.1525,-0.1418,-0.142,-0.1303,-0.1439,-0.1444,-0.1301,-0.144,-0.1479,-0.1499,-0.1507,0,0,0,0,0,0,-0.1169,-0.1205,-0.1226,-0.1186,-0.1184,-0.1232,-0.1292,-0.1363,-0.132,-0.1412,-0.1352,-0.1421,-0.1333,-0.1424,-0.1255,-0.1256,-0.1314,-0.1305,-0.1301,-0.1467,-0.1486,-0.1502,-0.1517,0,0,0,0,0]},{"header":{"parameterUnit":"m.s-1","parameterCategory":2,"la1":30.2991,"la2":30.254,"lo1":-89.0895,"lo2":-89.0444,"dy":0.0017,"dx":0.0017,"nx":28,"ny":28,"refTime":"2024-05-28T03:00:00:Z","depth":"4","parameterNumber":3,"parameterNumberName":"V-component_of_CURRENTS"},"data":[0,0,0,0,0,0,0,0,0,0,0,0,0,0,0,0,0,0,0,0,0,0,0,0,0,0,0,0,0,0,0,0,0,0,0,0,0,0,0,0,0,0,0,0,0,0,0,0,0,0,0,0,0,0,0,0,0,0,-0.0377,-0.0376,0,-0.0325,-0.0324,-0.0323,-0.0299,-0.0299,-0.0299,-0.0299,-0.0195,-0.0192,-0.0189,0,0,0,0,0,0,0,0,0,0,0,0,0,-0.0362,-0.0363,-0.0377,-0.0376,-0.0376,-0.0325,-0.0324,-0.0323,-0.0299,-0.0299,-0.0299,-0.03,-0.0196,-0.0192,-0.0189,0,0,0,0,0,0,0,0,0,0,0,0,0,-0.0345,-0.0363,-0.0377,-0.0358,-0.0356,-0.0325,-0.0324,-0.0323,-0.0299,-0.0299,-0.0299,-0.03,-0.0197,-0.0193,-0.0188,-0.0158,0,0,-0.0175,-0.0173,0,0,0,0,0,0,0,0,-0.0346,-0.0345,-0.0361,-0.0359,-0.0357,-0.0319,-0.0281,-0.0265,-0.0299,-0.032,-0.0299,-0.03,-0.0232,-0.0225,-0.0214,-0.0153,-0.0148,-0.0175,-0.0172,-0.017,-0.0169,0,0,0,0,0,0,0,-0.0347,-0.0347,-0.0355,-0.0361,-0.0358,-0.0321,-0.0319,-0.0277,-0.0274,-0.0318,-0.0316,-0.0312,-0.023,-0.0218,-0.0211,-0.0147,-0.0175,-0.0171,-0.0168,-0.0167,-0.0018,-0.0017,0,0,0,0,0,0,-0.036,-0.0349,-0.0357,-0.0354,-0.0353,-0.0321,-0.0319,-0.033,-0.0275,-0.0268,-0.0312,-0.0311,-0.0226,-0.0216,-0.0207,-0.0147,-0.017,-0.0166,-0.0164,-0.0019,-0.0018,-0.0016,0,0,0,0,0,0,-0.0361,-0.0362,-0.0359,-0.0349,-0.0347,-0.0322,-0.0334,-0.0329,-0.0323,-0.0271,-0.0263,-0.0311,-0.0226,-0.0214,-0.0166,-0.0144,-0.0164,-0.016,-0.0021,-0.0019,-0.0017,-0.004,0,0,0,0,0,0,-0.0361,-0.0363,-0.0374,-0.0351,-0.0348,-0.0345,-0.0334,-0.0328,-0.032,-0.0319,-0.0268,-0.0258,-0.0225,-0.0173,-0.0162,-0.0138,-0.0157,-0.0022,-0.002,-0.0018,-0.0041,-0.0039,-0.0037,0,0,0,0,0,-0.0361,-0.0378,-0.0376,-0.0376,-0.0365,-0.0345,-0.034,-0.0321,-0.032,-0.0316,-0.0277,-0.026,-0.0149,-0.0168,-0.0156,-0.0131,-0.0024,-0.0021,-0.0018,-0.0042,-0.0039,-0.0037,0,0,0,0,0,0,-0.0377,-0.0376,-0.0373,-0.039,-0.0371,-0.0342,-0.034,-0.0327,-0.0294,-0.0295,-0.0247,-0.0234,-0.0183,-0.0152,-0.0175,-0.0078,-0.0081,-0.0075,-0.0103,-0.0101,-0.0099,-0.0108,-0.0153,0,0,0,0,0,-0.0387,-0.0402,-0.0385,-0.0397,-0.0393,-0.0368,-0.0358,-0.0346,-0.0315,-0.0303,-0.0264,-0.0214,-0.0158,-0.0129,-0.0084,-0.0034,-0.001,-0.0006,-0.0004,-0.0003,0.0001,0.0063,0.007,-0.0006,-0.0006,-0.0006,0,0,-0.0398,-0.0398,-0.0407,-0.0401,-0.0388,-0.0374,-0.0363,-0.0355,-0.0331,-0.0294,-0.0254,-0.0212,-0.0145,-0.0088,-0.0061,-0.006,0.0027,0.0001,0.0001,0.0005,0.0067,0.0074,0.0081,-0.0004,-0.0005,-0.0005,0,0,-0.0415,-0.0427,-0.0438,-0.0424,-0.0409,-0.0388,-0.0389,-0.0361,-0.0341,-0.0298,-0.0257,-0.0201,-0.0132,-0.0069,-0.0029,0.0013,0.003,0.0024,0.0031,0.0091,0.0098,0.0104,0.0118,0.0126,0.003,0.003,0.0029,0,-0.0425,-0.0439,-0.0434,-0.0431,-0.0419,-0.0397,-0.039,-0.0359,-0.0316,-0.0288,-0.029,-0.0166,-0.0115,-0.0022,-0.0005,0.0018,0.0032,0.0013,0.0092,0.0098,0.0105,0.0119,0.0128,0.0029,0.0029,0.0029,0.0029,0,-0.0439,-0.0448,-0.0452,-0.0441,-0.0424,-0.042,-0.0379,-0.0356,-0.0332,-0.0292,-0.0217,-0.0147,-0.0073,-0.0041,-0.0008,0.0073,0.0059,0.0079,0.0079,0.0111,0.0124,0.0133,0.0028,0.0028,0.0028,0.0028,0,0,-0.0473,-0.0466,-0.0468,-0.0465,-0.0433,-0.0423,-0.038,-0.0331,-0.0307,-0.0248,-0.0203,-0.0091,-0.0066,-0.0018,0.0032,0.0093,0.0148,0.01,0.0104,0.01,0.0243,0.0211,0.0217,0.0174,0.0176,0.0178,0.0223,0,-0.0485,-0.0493,-0.0475,-0.0467,-0.0466,-0.0425,-0.0389,-0.0338,-0.0293,-0.0245,-0.0154,-0.0099,-0.0052,-0.0029,0.0045,0.0118,0.0176,0.0132,0.0225,0.0227,0.0185,0.0229,0.0185,0.023,0.0232,0.0234,0.0235,0,-0.0501,-0.0506,-0.0513,-0.0488,-0.0483,-0.0471,-0.0421,-0.0383,-0.0298,-0.0264,-0.0186,-0.0132,-0.0028,-0.0006,0.0145,0.0108,0.0176,0.0233,0.0236,0.0224,0.0215,0.0201,0.0252,0.0251,0.0249,0.0248,0.0247,0,-0.0535,-0.0527,-0.0538,-0.0532,-0.05,-0.0492,-0.0468,-0.0397,-0.0367,-0.0287,-0.0268,-0.0141,-0.0093,0.0023,0.0144,0.014,0.0291,0.0302,0.034,0.0337,0.0358,0.0352,0.0417,0.0417,0.0417,0.0417,0.0417,0,-0.0551,-0.056,-0.0566,-0.0575,-0.0583,-0.054,-0.053,-0.0486,-0.0426,-0.0386,-0.0294,-0.0239,-0.0082,0.0022,0.0132,0.0256,0.0286,0.0348,0.036,0.0344,0.0336,0.0363,0.0356,0.0419,0.0418,0.0418,0.0418,0,-0.0578,-0.0583,-0.0605,-0.0603,-0.0606,-0.0616,-0.0592,-0.0575,-0.0519,-0.0471,-0.0452,-0.0313,-0.0176,-0.0029,0.0156,0.0228,0.0356,0.0397,0.0339,0.0345,0.0357,0.0348,0.0432,0.0432,0.0431,0.0431,0.0431,0,-0.0588,-0.0607,-0.0646,-0.0671,-0.0678,-0.0687,-0.0687,-0.0634,-0.0611,-0.0504,-0.048,-0.0347,-0.0241,-0.0011,0.0141,0.0327,0.0364,0.04,0.0415,0.0362,0.0366,0.0358,0.035,0.043,0.043,0.043,0.043,0,-0.0607,-0.0637,-0.066,-0.0719,-0.0748,-0.076,-0.0755,-0.0742,-0.0662,-0.0624,-0.0482,-0.0346,-0.0193,-0.0006,0.0132,0.0275,0.0358,0.0397,0.0399,0.0414,0.0361,0.0363,0.0355,0.0429,0.0429,0.0429,0.0429,0,-0.0625,-0.0659,-0.0705,-0.0748,-0.0795,-0.0809,-0.0799,-0.0743,-0.0705,-0.0577,-0.0529,-0.0342,-0.0226,-0.0032,0.0104,0.0226,0.0261,0.0288,0.0297,0.03,0.0251,0.0164,0.0192,0,0,0,0,0,-0.0628,-0.0668,-0.0719,-0.0773,-0.0822,-0.0838,-0.0827,-0.0801,-0.0734,-0.0639,-0.0574,-0.0417,-0.0187,-0.0079,0.004,0.0075,0.0255,0.0214,0.0284,0.0422,0.0423,0.0388,0,0,0,0,0,0,-0.0632,-0.0688,-0.0719,-0.0783,-0.0818,-0.0857,-0.0848,-0.0801,-0.0728,-0.0643,-0.051,-0.0421,-0.0194,-0.0258,0.0033,0.0071,0.0123,0.0329,0.0331,0.0421,0.0422,0.0423,0.0387,0,0,0,0,0]}]]